This demonstration page uses our WeatherBlox Daily Observations layout. Learn more.

Left ArrowRight Arrow

Hourly Observations for February 25, 2022

Temp ( °F °C ) Dew Point ( °F °C ) Humidity (%) Winds ( mph kmh ) Pressure ( in mb ) Visibility ( mi km ) Precip ( " mm )
12:53 am 00:53 Mostly Clear 4 -15.6 1 -17.2 88 88 W 7 11 30.37 1029 10 16 0.00 0.00
1:53 am 01:53 Cloudy 6 -14.4 3 -16.1 87 87 W 5 7 30.36 1028 10 16 0.00 0.00
2:53 am 02:53 Cloudy 14 -10 10 -12.2 84 84 SW 13 20 30.33 1027 10 16 0.00 0.00
3:53 am 03:53 Cloudy 14 -10 10 -12.2 84 84 SW 14 22 30.32 1027 10 16 0.00 0.00
4:53 am 04:53 Cloudy 13 -10.6 9 -12.8 84 84 SW 9 15 30.32 1027 10 16 0.00 0.00
5:53 am 05:53 Cloudy 13 -10.6 9 -12.8 84 84 SW 14 22 30.33 1027 10 16 0.00 0.00
6:53 am 06:53 Cloudy 15 -9.4 8 -13.3 74 74 SW 17 28 30.33 1027 10 16 0.00 0.00
7:53 am 07:53 Sunny 14 -10 5 -15 67 67 WSW 13 20 30.35 1028 10 16 0.00 0.00
8:53 am 08:53 Sunny 17 -8.3 7 -13.9 64 64 SW 15 24 30.35 1028 10 16 0.00 0.00
9:53 am 09:53 Sunny 19 -7.2 7 -13.9 59 59 SW 23 37 30.34 1027 10 16 0.00 0.00
10:53 am 10:53 Sunny 21 -6.1 9 -12.8 59 59 SW 20 31 30.31 1027 10 16 0.00 0.00
11:53 am 11:53 Sunny 24 -4.4 11 -11.7 57 57 SW 21 33 30.31 1026 10 16 0.00 0.00
12:53 pm 12:53 Sunny 26 -3.3 12 -11.1 55 55 SW 25 41 30.28 1025 10 16 0.00 0.00
1:53 pm 13:53 Sunny 27 -2.8 14 -10 58 58 SW 23 37 30.24 1024 10 16 0.00 0.00
2:53 pm 14:53 Sunny 28 -2.2 14 -10 56 56 SW 23 37 30.22 1023 10 16 0.00 0.00
3:53 pm 15:53 Sunny 29 -1.7 15 -9.4 56 56 SW 23 37 30.21 1023 10 16 0.00 0.00
4:53 pm 16:53 Sunny 27 -2.8 15 -9.4 61 61 SW 15 24 30.22 1023 10 16 0.00 0.00
5:53 pm 17:53 Sunny 23 -5 13 -10.6 65 65 SW 12 19 30.22 1023 10 16 0.00 0.00
6:53 pm 18:53 Clear 16 -8.9 9 -12.8 74 74 SW 13 20 30.22 1023 10 16 0.00 0.00
7:53 pm 19:53 Clear 13 -10.6 7 -13.9 77 77 SW 12 19 30.23 1024 10 16 0.00 0.00
8:53 pm 20:53 Clear 12 -11.1 6 -14.4 77 77 SW 13 20 30.23 1024 10 16 0.00 0.00
9:53 pm 21:53 Clear 13 -10.6 7 -13.9 77 77 SW 14 22 30.25 1024 10 16 0.00 0.00
10:53 pm 22:53 Clear 15 -9.4 7 -13.9 70 70 SW 15 24 30.24 1024 10 16 0.00 0.00
11:53 pm 23:53 Clear 17 -8.3 7 -13.9 64 64 SW 21 33 30.23 1024 10 16 0.00 0.00

Powered by AerisWeather